| time (UTC) | temp C | wind direction | speed KPH | gust KPH | rain 1hr cm | rain 24hr cm | rain mn cm | humidity % | barometer mb |
| 20260507223927 | 12 | 18 | 0.0 | 0.0 | 0.00 | 0.05 | 0.00 | 90 | 1014.7 |
| 20260507223429 | 12 | 20 | 0.0 | 1.6 | 0.00 | 0.05 | 0.00 | 90 | 1014.7 |
| 20260507222927 | 12 | 9 | 1.6 | 3.2 | 0.00 | 0.05 | 0.00 | 90 | 1014.7 |
| 20260507222430 | 12 | 4 | 0.0 | 3.2 | 0.00 | 0.05 | 0.00 | 90 | 1014.6 |
| 20260507221928 | 12 | 28 | 1.6 | 4.8 | 0.00 | 0.05 | 0.00 | 90 | 1014.7 |
| 20260507221429 | 12 | 23 | 0.0 | 1.6 | 0.00 | 0.05 | 0.00 | 90 | 1014.6 |
| 20260507220928 | 12 | 23 | 0.0 | 1.6 | 0.00 | 0.05 | 0.00 | 90 | 1014.6 |
| 20260507220428 | 12 | 23 | 0.0 | 0.0 | 0.00 | 0.05 | 0.00 | 90 | 1014.6 |
| 20260507215927 | 12 | 23 | 0.0 | 0.0 | 0.00 | 0.05 | 0.00 | 90 | 1014.6 |
| 20260507214928 | 12 | 23 | 0.0 | 1.6 | 0.00 | 0.05 | 0.05 | 90 | 1014.4 |
| 20260507214427 | 12 | 24 | 0.0 | 0.0 | 0.00 | 0.05 | 0.05 | 90 | 1014.4 |
| 20260507213927 | 12 | 23 | 1.6 | 4.8 | 0.00 | 0.05 | 0.05 | 90 | 1014.3 |
| 20260507213428 | 12 | 23 | 0.0 | 3.2 | 0.00 | 0.05 | 0.05 | 90 | 1014.3 |
| 20260507212928 | 12 | 29 | 1.6 | 3.2 | 0.00 | 0.05 | 0.05 | 90 | 1014.3 |
| 20260507211928 | 12 | 11 | 0.0 | 0.0 | 0.00 | 0.05 | 0.05 | 90 | 1014.3 |
| 20260507211429 | 13 | 11 | 0.0 | 0.0 | 0.00 | 0.05 | 0.05 | 90 | 1014.3 |
| 20260507210427 | 13 | 11 | 0.0 | 0.0 | 0.00 | 0.05 | 0.05 | 90 | 1014.3 |
| 20260507205927 | 13 | 11 | 0.0 | 0.0 | 0.00 | 0.05 | 0.05 | 90 | 1014.4 |
| 20260507205428 | 13 | 11 | 0.0 | 0.0 | 0.00 | 0.05 | 0.05 | 89 | 1014.4 |
| 20260507204928 | 13 | 11 | 0.0 | 0.0 | 0.00 | 0.05 | 0.05 | 89 | 1014.4 |
| 20260507204427 | 13 | 11 | 0.0 | 0.0 | 0.00 | 0.05 | 0.05 | 89 | 1014.4 |
| 20260507203927 | 13 | 11 | 0.0 | 0.0 | 0.00 | 0.05 | 0.05 | 89 | 1014.4 |
| 20260507203428 | 13 | 11 | 0.0 | 0.0 | 0.00 | 0.05 | 0.05 | 89 | 1014.4 |
| 20260507202934 | 13 | 11 | 0.0 | 0.0 | 0.00 | 0.05 | 0.05 | 89 | 1014.4 |
| 20260507202427 | 13 | 11 | 0.0 | 0.0 | 0.00 | 0.05 | 0.05 | 89 | 1014.3 |
| 20260507201927 | 13 | 11 | 0.0 | 0.0 | 0.00 | 0.05 | 0.05 | 89 | 1014.3 |
| 20260507201427 | 13 | 11 | 0.0 | 0.0 | 0.00 | 0.05 | 0.05 | 89 | 1014.3 |
| 20260507200927 | 13 | 11 | 0.0 | 0.0 | 0.00 | 0.05 | 0.05 | 88 | 1014.3 |
| 20260507195928 | 13 | 11 | 0.0 | 3.2 | 0.00 | 0.05 | 0.05 | 88 | 1014.1 |
| 20260507194927 | 13 | 47 | 0.0 | 1.6 | 0.00 | 0.05 | 0.05 | 88 | 1014.1 |
| 20260507193928 | 14 | 54 | 0.0 | 1.6 | 0.00 | 0.05 | 0.05 | 87 | 1014.1 |
| 20260507193436 | 14 | 54 | 0.0 | 0.0 | 0.00 | 0.05 | 0.05 | 87 | 1014.0 |
| 20260507192943 | 14 | 54 | 0.0 | 0.0 | 0.00 | 0.05 | 0.05 | 87 | 1014.1 |
| 20260507191943 | 15 | 54 | 0.0 | 0.0 | 0.00 | 0.05 | 0.05 | 86 | 1014.0 |
| 20260507191427 | 15 | 54 | 0.0 | 0.0 | 0.00 | 0.05 | 0.05 | 86 | 1014.0 |
| 20260507185927 | 15 | 57 | 0.0 | 0.0 | 0.00 | 0.05 | 0.05 | 85 | 1013.9 |
| 20260507185427 | 16 | 57 | 0.0 | 0.0 | 0.00 | 0.05 | 0.05 | 85 | 1013.8 |
| 20260507184928 | 16 | 57 | 0.0 | 0.0 | 0.00 | 0.05 | 0.05 | 85 | 1013.9 |
| 20260507184428 | 16 | 57 | 0.0 | 0.0 | 0.00 | 0.05 | 0.05 | 84 | 1014.0 |
| 20260507183928 | 16 | 57 | 0.0 | 3.2 | 0.00 | 0.05 | 0.05 | 84 | 1014.0 |
| 20260507183428 | 16 | 113 | 1.6 | 4.8 | 0.00 | 0.05 | 0.05 | 84 | 1014.0 |
| 20260507182929 | 16 | 82 | 0.0 | 3.2 | 0.00 | 0.05 | 0.05 | 84 | 1014.0 |
| 20260507181928 | 16 | 130 | 1.6 | 4.8 | 0.00 | 0.05 | 0.05 | 83 | 1013.9 |
| 20260507180928 | 16 | 33 | 0.0 | 0.0 | 0.00 | 0.05 | 0.05 | 83 | 1013.8 |
| 20260507180428 | 16 | 49 | 1.6 | 8.0 | 0.00 | 0.05 | 0.05 | 83 | 1013.9 |
| 20260507175928 | 16 | 184 | 0.0 | 3.2 | 0.00 | 0.05 | 0.05 | 83 | 1013.9 |
| 20260507175429 | 16 | 193 | 1.6 | 4.8 | 0.00 | 0.05 | 0.05 | 83 | 1013.9 |
| 20260507174927 | 16 | 184 | 3.2 | 4.8 | 0.00 | 0.05 | 0.05 | 83 | 1013.9 |
| 20260507174430 | 16 | 131 | 0.0 | 1.6 | 0.00 | 0.05 | 0.05 | 83 | 1013.8 |
| 20260507173928 | 16 | 163 | 0.0 | 1.6 | 0.00 | 0.05 | 0.05 | 83 | 1013.9 |
| 20260507173428 | 16 | 151 | 0.0 | 4.8 | 0.00 | 0.05 | 0.05 | 82 | 1013.9 |
| 20260507171428 | 17 | 245 | 3.2 | 8.0 | 0.00 | 0.05 | 0.05 | 82 | 1014.0 |
| 20260507165928 | 17 | 250 | 4.8 | 11.3 | 0.00 | 0.15 | 0.05 | 81 | 1013.8 |
| 20260507165427 | 17 | 200 | 6.4 | 11.3 | 0.00 | 0.20 | 0.05 | 82 | 1013.7 |
| 20260507164927 | 17 | 161 | 3.2 | 8.0 | 0.00 | 0.23 | 0.05 | 82 | 1013.7 |
| 20260507164427 | 17 | 216 | 4.8 | 16.1 | 0.00 | 0.23 | 0.05 | 81 | 1013.7 |
| 20260507163927 | 17 | 211 | 8.0 | 19.3 | 0.00 | 0.23 | 0.05 | 80 | 1013.8 |
| 20260507163428 | 18 | 214 | 8.0 | 14.5 | 0.00 | 0.28 | 0.05 | 80 | 1013.8 |
| 20260507162928 | 18 | 219 | 6.4 | 19.3 | 0.00 | 0.28 | 0.05 | 80 | 1013.8 |
| 20260507162427 | 18 | 213 | 4.8 | 16.1 | 0.00 | 0.30 | 0.05 | 79 | 1013.7 |
| 20260507161928 | 18 | 193 | 6.4 | 16.1 | 0.00 | 0.30 | 0.05 | 79 | 1013.7 |
| 20260507160427 | 18 | 299 | 3.2 | 14.5 | 0.00 | 0.30 | 0.05 | 78 | 1013.7 |
| 20260507155927 | 18 | 85 | 3.2 | 14.5 | 0.00 | 0.30 | 0.05 | 76 | 1013.7 |
| 20260507155434 | 19 | 248 | 3.2 | 11.3 | 0.00 | 0.30 | 0.05 | 75 | 1013.7 |
| 20260507154928 | 19 | 243 | 4.8 | 12.9 | 0.00 | 0.30 | 0.05 | 77 | 1013.6 |
| 20260507154427 | 19 | 130 | 4.8 | 11.3 | 0.00 | 0.30 | 0.05 | 76 | 1013.8 |
| 20260507153929 | 20 | 110 | 3.2 | 9.7 | 0.00 | 0.30 | 0.05 | 75 | 1013.8 |
| 20260507152928 | 20 | 211 | 8.0 | 12.9 | 0.00 | 0.30 | 0.05 | 76 | 1013.7 |
| 20260507152428 | 20 | 254 | 3.2 | 11.3 | 0.00 | 0.30 | 0.05 | 77 | 1013.7 |
| 20260507151928 | 20 | 230 | 4.8 | 9.7 | 0.00 | 0.30 | 0.05 | 78 | 1013.8 |
| 20260507151433 | 19 | 208 | 6.4 | 19.3 | 0.05 | 0.30 | 0.05 | 77 | 1013.8 |
| 20260507150927 | 19 | 340 | 8.0 | 12.9 | 0.05 | 0.30 | 0.05 | 76 | 1013.9 |
| 20260507150428 | 19 | 221 | 1.6 | 4.8 | 0.05 | 0.30 | 0.05 | 77 | 1013.9 |
| 20260507145928 | 19 | 211 | 4.8 | 11.3 | 0.05 | 0.30 | 0.05 | 77 | 1013.8 |
| 20260507144927 | 19 | 211 | 9.7 | 16.1 | 0.05 | 0.30 | 0.05 | 77 | 1013.8 |
| 20260507144427 | 19 | 216 | 4.8 | 14.5 | 0.05 | 0.30 | 0.05 | 76 | 1013.7 |
| 20260507143928 | 19 | 203 | 4.8 | 19.3 | 0.05 | 0.30 | 0.05 | 78 | 1013.8 |
| 20260507143430 | 19 | 165 | 4.8 | 20.9 | 0.05 | 0.30 | 0.05 | 77 | 1013.9 |
| 20260507142929 | 19 | 227 | 8.0 | 16.1 | 0.05 | 0.30 | 0.05 | 76 | 1013.8 |
| 20260507142429 | 19 | 184 | 9.7 | 16.1 | 0.05 | 0.30 | 0.05 | 76 | 1013.9 |
| 20260507141928 | 15 | 43 | 1.6 | 3.2 | 0.05 | 0.33 | 0.05 | 84 | 1011.9 |
| 20260507040935 | 15 | 73 | 3.2 | 4.8 | 0.00 | 0.30 | 0.00 | 84 | 1011.9 |
| 20260507040435 | 15 | 119 | 1.6 | 9.7 | 0.00 | 0.33 | 0.00 | 83 | 1011.9 |
| 20260507035935 | 15 | 79 | 4.8 | 11.3 | 0.00 | 0.36 | 0.00 | 84 | 1012.0 |
| 20260507035436 | 15 | 76 | 3.2 | 11.3 | 0.00 | 0.38 | 0.00 | 84 | 1011.9 |
| 20260507034936 | 15 | 107 | 1.6 | 8.0 | 0.00 | 0.41 | 0.00 | 83 | 1011.9 |
| 20260507034435 | 15 | 41 | 1.6 | 4.8 | 0.00 | 0.41 | 0.00 | 83 | 1012.0 |
| 20260507033436 | 15 | 83 | 4.8 | 11.3 | 0.00 | 0.41 | 0.00 | 83 | 1012.0 |
| 20260507031435 | 15 | 54 | 3.2 | 4.8 | 0.00 | 0.41 | 0.00 | 83 | 1012.0 |
| 20260507030935 | 15 | 76 | 1.6 | 8.0 | 0.00 | 0.41 | 0.00 | 83 | 1012.0 |
| 20260507030436 | 15 | 123 | 6.4 | 12.9 | 0.00 | 0.41 | 0.00 | 83 | 1011.9 |
| 20260507025935 | 15 | 101 | 4.8 | 14.5 | 0.00 | 0.41 | 0.00 | 83 | 1011.9 |
| 20260507024935 | 15 | 99 | 3.2 | 8.0 | 0.00 | 0.41 | 0.00 | 83 | 1011.8 |
| 20260507024438 | 15 | 145 | 3.2 | 4.8 | 0.00 | 0.43 | 0.00 | 83 | 1011.8 |
| 20260507023436 | 15 | 67 | 1.6 | 11.3 | 0.00 | 0.43 | 0.00 | 83 | 1011.9 |
| 20260507022936 | 15 | 58 | 3.2 | 8.0 | 0.00 | 0.43 | 0.00 | 83 | 1011.8 |
| 20260507022435 | 15 | 111 | 3.2 | 11.3 | 0.00 | 0.46 | 0.00 | 83 | 1011.8 |
| 20260507021935 | 15 | 103 | 4.8 | 19.3 | 0.00 | 0.46 | 0.00 | 83 | 1011.8 |
| 20260507021436 | 15 | 87 | 3.2 | 11.3 | 0.00 | 0.51 | 0.00 | 83 | 1011.9 |
| 20260507020935 | 15 | 92 | 3.2 | 8.0 | 0.00 | 0.51 | 0.00 | 83 | 1011.8 |
| 20260507015935 | 15 | 82 | 4.8 | 9.7 | 0.00 | 0.58 | 0.00 | 83 | 1011.8 |
| 20260507015435 | 15 | 90 | 1.6 | 9.7 | 0.00 | 0.64 | 0.00 | 83 | 1011.8 |
| 20260507014935 | 15 | 86 | 4.8 | 16.1 | 0.00 | 0.69 | 0.00 | 83 | 1011.8 |
| 20260507013936 | 15 | 119 | 4.8 | 9.7 | 0.00 | 0.79 | 0.00 | 83 | 1011.7 |
| 20260507013435 | 15 | 42 | 1.6 | 8.0 | 0.00 | 0.84 | 0.00 | 84 | 1011.7 |
| 20260507012935 | 15 | 69 | 1.6 | 4.8 | 0.00 | 0.91 | 0.00 | 83 | 1011.8 |
| 20260507012435 | 15 | 60 | 3.2 | 11.3 | 0.00 | 0.99 | 0.00 | 83 | 1011.8 |
| 20260507011935 | 15 | 116 | 3.2 | 11.3 | 0.00 | 1.09 | 0.00 | 83 | 1011.8 |
| 20260507011435 | 15 | 18 | 1.6 | 4.8 | 0.00 | 1.27 | 0.00 | 83 | 1011.9 |
| 20260507010935 | 15 | 346 | 1.6 | 9.7 | 0.00 | 1.42 | 0.00 | 83 | 1011.9 |
| 20260507010442 | 15 | 117 | 1.6 | 4.8 | 0.00 | 1.45 | 0.00 | 83 | 1011.9 |
| 20260507005936 | 15 | 289 | 8.0 | 14.5 | 0.00 | 1.45 | 0.00 | 83 | 1011.9 |
| 20260507005435 | 15 | 332 | 1.6 | 14.5 | 0.00 | 1.45 | 0.00 | 83 | 1011.9 |
| 20260507004935 | 15 | 128 | 3.2 | 12.9 | 0.00 | 1.50 | 0.00 | 83 | 1012.0 |
| 20260507004435 | 15 | 339 | 1.6 | 4.8 | 0.00 | 1.50 | 0.00 | 84 | 1012.1 |
| 20260507003935 | 15 | 38 | 1.6 | 8.0 | 0.00 | 1.52 | 0.00 | 84 | 1012.0 |
| 20260507003435 | 15 | 357 | 1.6 | 8.0 | 0.00 | 1.52 | 0.00 | 83 | 1011.9 |
| 20260507002436 | 15 | 17 | 3.2 | 9.7 | 0.00 | 1.52 | 0.00 | 83 | 1011.8 |
| 20260507001435 | 15 | 289 | 1.6 | 11.3 | 0.00 | 1.55 | 0.00 | 84 | 1011.8 |
| 20260507000936 | 15 | 352 | 1.6 | 9.7 | 0.00 | 1.55 | 0.00 | 83 | 1011.7 |
| 20260507000437 | 15 | 322 | 3.2 | 11.3 | 0.00 | 1.55 | 0.00 | 83 | 1011.8 |
| 20260506234935 | 15 | 337 | 3.2 | 11.3 | 0.00 | 1.55 | 0.00 | 83 | 1011.9 |
| 20260506234435 | 15 | 349 | 0.0 | 9.7 | 0.00 | 1.55 | 0.00 | 82 | 1011.9 |
| 20260506233936 | 15 | 48 | 4.8 | 8.0 | 0.00 | 1.55 | 0.00 | 82 | 1012.0 |
| 20260506233435 | 15 | 359 | 3.2 | 8.0 | 0.00 | 1.55 | 0.00 | 82 | 1012.0 |
| 20260506232437 | 15 | 41 | 1.6 | 11.3 | 0.00 | 1.55 | 0.00 | 82 | 1012.0 |
| 20260506231935 | 15 | 75 | 3.2 | 16.1 | 0.00 | 1.55 | 0.00 | 81 | 1011.9 |
| 20260506231436 | 15 | 21 | 3.2 | 12.9 | 0.00 | 1.55 | 0.00 | 81 | 1011.9 |
| 20260506230935 | 15 | 27 | 3.2 | 8.0 | 0.00 | 1.55 | 0.00 | 81 | 1011.9 |
| 20260506230436 | 15 | 336 | 4.8 | 11.3 | 0.00 | 1.55 | 0.00 | 81 | 1011.9 |
| 20260506225436 | 15 | 53 | 1.6 | 11.3 | 0.00 | 1.55 | 0.00 | 81 | 1012.0 |
| 20260506224935 | 15 | 87 | 3.2 | 8.0 | 0.00 | 1.55 | 0.00 | 82 | 1012.0 |
| 20260506224435 | 15 | 315 | 1.6 | 12.9 | 0.00 | 1.55 | 0.00 | 82 | 1012.0 |